COSMOS 651

Satellite information

Favourite Embed

Satellite Type and Status

PAYLOADIN ORBIT

Key statistics

Satellite COSMOS 651 at a glance.

Uptime

18841

Days in orbit

Revolutions

≈ 13.9

Per day

Orbit

LEO

Low Earth Orbit

Inclination

65.0

Latest

Satellite identification and parameters

Extended collection of information and parameters for COSMOS 651.

Object identification

Identified? True

Debris? False

Object name: COSMOS 651

International designator: 1974-029A

Object number (NORAD): 7291

Object ID (CCSDS): 7291

Country: COMMONWEALTH OF INDEPENDENT STATES (CIS)

Current information (Y/N): Y

RCS size: LARGE

Orbital parameters

Period: 103.368 minutes

Inclination: 64.9718 deg

SMA: 7295.986 km

Apoapsis: 936.53 km

Periapsis: 899.172 km

RAAN: 85.6693 deg

Eccentricy: 0.00256017

Argument of periapsis: 141.6965 deg

Mean anomaly: 218.5925 deg

Mean motion: 13.93082257 rev/day

Mean motion (dot): -0.00000038 rev/day2

B* drag term: 0.000040462284 1/REarth

Two-line elements (TLE)

Creation date: Dec. 12, 2025, 10:14 a.m.

Reference frame: TEME

Reference center: EARTH

Epoch: Dec. 12, 2025, 7:30 a.m. UTC

TLE line 0: 0 COSMOS 651

TLE line 1: 1 07291U 74029A 25346.31311041 -.00000038 00000-0 40462-4 0 9997

TLE line 2: 2 07291 64.9718 85.6693 0025602 141.6965 218.5925 13.93082257624688

Live tracking on map

Real-time ground track for satellite COSMOS 651.

In-orbit conjunctions

A list of the most updated potential collisions computed for object COSMOS 651.

Target Orbit TCA Probability of collision Miss distance Type
THORAD AGENA D DEB SSO 2025-08-07 13:57:35 0.0009351035 185.0 (m) DEBRIS
FENGYUN 1C DEB SSO 2025-04-23 06:44:55 0.0001192742 461.0 (m) DEBRIS
FENGYUN 1C DEB SSO 2025-01-20 07:15:09 0.0001081634 391.0 (m) DEBRIS
COSMOS 1275 DEB LEO 2024-09-01 02:32:40 0.0001953834 391.0 (m) DEBRIS
FENGYUN 1C DEB SSO 2024-06-20 00:25:11 0.0009973012 43.0 (m) DEBRIS

Associated space launch

High resolution optical reconnaissance satellite of the Vostok-based Zenit family.

COSMOS 651 was lifted into orbit during the mission ‘Soyuz U | Zenit-4MK 25’, on board a Soyuz U space rocket.

The launch took place on May 15, 1974, 8:30 a.m. from 31/6.

For more information about the launch, click the button.

Launch to space Soyuz U | Zenit-4MK 25
Soyuz U | Zenit-4MK 25

Agency: N/A

Status: Launch Successful

Launch date: May 15, 1974, 8:30 a.m. UTC

Rocket: Soyuz U

Launch pad: 31/6

Location: Baikonur Cosmodrome, Republic of Kazakhstan

...

Latest news about this satellite

There are no fresh news available about this satellite. Check back as we update our databases every day.


Newsletter sign-up

Weekly statistics, charts and insights to help you stay on top of the space industry.